| time (UTC) | temp F | wind direction | speed MPH | gust MPH | rain 1hr in | rain 24hr in | rain mn in | humidity % | barometer mb |
| 20260510221015 | 60 | 315 | 4.0 | 10.0 | 0.00 | 0.04 | 0.04 | 43 | 1013.5 |
| 20260510220515 | 60 | 293 | 1.0 | 6.0 | 0.00 | 0.04 | 0.04 | 47 | 1013.6 |
| 20260510220015 | 60 | 315 | 3.0 | 9.0 | 0.00 | 0.04 | 0.04 | 45 | 1013.4 |
| 20260510215516 | 60 | 315 | 5.0 | 12.0 | 0.00 | 0.04 | 0.04 | 45 | 1013.4 |
| 20260510215015 | 60 | 293 | 2.0 | 7.0 | 0.00 | 0.04 | 0.04 | 48 | 1013.3 |
| 20260510214515 | 60 | 315 | 3.0 | 12.0 | 0.00 | 0.04 | 0.04 | 46 | 1013.3 |
| 20260510214036 | 60 | 293 | 2.0 | 6.0 | 0.00 | 0.04 | 0.04 | 48 | 1013.2 |
| 20260510213515 | 60 | 315 | 3.0 | 7.0 | 0.00 | 0.04 | 0.04 | 48 | 1013.2 |
| 20260510213015 | 61 | 315 | 2.0 | 12.0 | 0.00 | 0.04 | 0.04 | 48 | 1013.1 |
| 20260510212516 | 60 | 203 | 4.0 | 11.0 | 0.00 | 0.04 | 0.04 | 52 | 1012.9 |
| 20260510212015 | 60 | 315 | 3.0 | 8.0 | 0.00 | 0.04 | 0.04 | 49 | 1013.0 |
| 20260510211515 | 60 | 293 | 3.0 | 8.0 | 0.00 | 0.04 | 0.04 | 50 | 1012.9 |
| 20260510211015 | 60 | 315 | 5.0 | 16.0 | 0.00 | 0.04 | 0.04 | 50 | 1012.9 |
| 20260510210516 | 60 | 315 | 5.0 | 12.0 | 0.00 | 0.04 | 0.04 | 51 | 1012.8 |
| 20260510210036 | 60 | 315 | 4.0 | 10.0 | 0.00 | 0.04 | 0.04 | 50 | 1012.7 |
| 20260510205536 | 60 | 248 | 3.0 | 14.0 | 0.00 | 0.04 | 0.04 | 55 | 1012.8 |
| 20260510205016 | 59 | 203 | 5.0 | 14.0 | 0.00 | 0.04 | 0.04 | 57 | 1012.7 |
| 20260510204515 | 59 | 158 | 4.0 | 9.0 | 0.00 | 0.04 | 0.04 | 61 | 1012.8 |
| 20260510204015 | 59 | 248 | 3.0 | 7.0 | 0.00 | 0.04 | 0.04 | 59 | 1012.8 |
| 20260510203515 | 60 | 225 | 4.0 | 8.0 | 0.00 | 0.04 | 0.04 | 58 | 1012.8 |
| 20260510202516 | 59 | 225 | 3.0 | 8.0 | 0.00 | 0.04 | 0.04 | 61 | 1012.8 |
| 20260510202036 | 59 | 248 | 3.0 | 8.0 | 0.00 | 0.04 | 0.04 | 64 | 1012.8 |
| 20260510201515 | 59 | 315 | 3.0 | 11.0 | 0.00 | 0.05 | 0.04 | 64 | 1012.9 |
| 20260510201015 | 59 | 315 | 5.0 | 12.0 | 0.00 | 0.05 | 0.04 | 64 | 1012.9 |
| 20260510200516 | 59 | 270 | 5.0 | 11.0 | 0.00 | 0.05 | 0.04 | 63 | 1012.9 |
| 20260510200015 | 59 | 315 | 3.0 | 7.0 | 0.00 | 0.05 | 0.04 | 68 | 1012.9 |
| 20260510195515 | 59 | 180 | 4.0 | 11.0 | 0.00 | 0.05 | 0.04 | 66 | 1012.9 |
| 20260510195015 | 59 | 203 | 5.0 | 10.0 | 0.00 | 0.06 | 0.04 | 68 | 1013.1 |
| 20260510194515 | 59 | 315 | 2.0 | 9.0 | 0.00 | 0.06 | 0.04 | 71 | 1013.0 |
| 20260510194015 | 58 | 248 | 2.0 | 7.0 | 0.00 | 0.06 | 0.04 | 74 | 1013.2 |
| 20260510193535 | 58 | 203 | 4.0 | 10.0 | 0.00 | 0.06 | 0.04 | 73 | 1013.2 |
| 20260510193015 | 57 | 338 | 1.0 | 6.0 | 0.00 | 0.07 | 0.04 | 74 | 1013.3 |
| 20260510192515 | 57 | 315 | 2.0 | 11.0 | 0.00 | 0.07 | 0.04 | 75 | 1013.3 |
| 20260510192035 | 57 | 180 | 2.0 | 4.0 | 0.00 | 0.07 | 0.04 | 73 | 1013.4 |
| 20260510191515 | 57 | 293 | 2.0 | 7.0 | 0.00 | 0.07 | 0.04 | 74 | 1013.4 |
| 20260510191015 | 56 | 270 | 3.0 | 9.0 | 0.00 | 0.08 | 0.04 | 76 | 1013.4 |
| 20260510190536 | 56 | 225 | 2.0 | 7.0 | 0.00 | 0.08 | 0.04 | 79 | 1013.4 |
| 20260510190016 | 55 | 315 | 4.0 | 8.0 | 0.00 | 0.09 | 0.04 | 80 | 1013.5 |
| 20260510185515 | 55 | 315 | 3.0 | 7.0 | 0.00 | 0.09 | 0.04 | 81 | 1013.5 |
| 20260510185016 | 55 | 225 | 2.0 | 4.0 | 0.00 | 0.09 | 0.04 | 81 | 1013.5 |
| 20260510184516 | 56 | 338 | 2.0 | 6.0 | 0.00 | 0.09 | 0.04 | 82 | 1013.4 |
| 20260510184015 | 56 | 225 | 4.0 | 13.0 | 0.00 | 0.09 | 0.04 | 80 | 1013.4 |
| 20260510183516 | 56 | 158 | 2.0 | 8.0 | 0.00 | 0.10 | 0.04 | 82 | 1013.3 |
| 20260510183016 | 54 | 180 | 4.0 | 9.0 | 0.00 | 0.10 | 0.04 | 85 | 1013.3 |
| 20260510182636 | 53 | 180 | 3.0 | 9.0 | 0.00 | 0.10 | 0.04 | 87 | 1013.3 |
| 20260510182016 | 53 | 180 | 3.0 | 10.0 | 0.00 | 0.11 | 0.04 | 88 | 1013.4 |
| 20260510181536 | 52 | 293 | 1.0 | 5.0 | 0.00 | 0.11 | 0.04 | 90 | 1013.4 |
| 20260510181016 | 52 | 0.0 | 2.0 | 0.00 | 0.11 | 0.04 | 91 | 1013.3 | |
| 20260510180516 | 52 | 225 | 1.0 | 3.0 | 0.00 | 0.11 | 0.04 | 90 | 1013.3 |
| 20260510180016 | 52 | 225 | 1.0 | 3.0 | 0.00 | 0.12 | 0.04 | 91 | 1013.3 |
| 20260510175516 | 51 | 135 | 1.0 | 5.0 | 0.00 | 0.12 | 0.04 | 90 | 1013.3 |
| 20260510175016 | 52 | 180 | 2.0 | 8.0 | 0.00 | 0.12 | 0.04 | 90 | 1013.4 |
| 20260510174515 | 52 | 225 | 1.0 | 4.0 | 0.00 | 0.12 | 0.04 | 90 | 1013.4 |
| 20260510174036 | 52 | 248 | 1.0 | 3.0 | 0.00 | 0.12 | 0.04 | 90 | 1013.4 |
| 20260510173556 | 52 | 248 | 1.0 | 5.0 | 0.00 | 0.13 | 0.04 | 90 | 1013.3 |
| 20260510173016 | 52 | 0.0 | 1.0 | 0.00 | 0.13 | 0.04 | 91 | 1013.3 | |
| 20260510172536 | 52 | 203 | 1.0 | 4.0 | 0.00 | 0.13 | 0.04 | 90 | 1013.3 |
| 20260510172016 | 52 | 0.0 | 2.0 | 0.00 | 0.13 | 0.04 | 90 | 1013.4 | |
| 20260510171516 | 52 | 0.0 | 2.0 | 0.00 | 0.13 | 0.04 | 91 | 1013.4 | |
| 20260510171016 | 52 | 225 | 2.0 | 6.0 | 0.00 | 0.13 | 0.04 | 90 | 1013.4 |
| 20260510170515 | 52 | 180 | 2.0 | 5.0 | 0.00 | 0.14 | 0.04 | 89 | 1013.3 |
| 20260510170015 | 52 | 180 | 3.0 | 9.0 | 0.00 | 0.14 | 0.04 | 91 | 1013.4 |
| 20260510165516 | 52 | 225 | 1.0 | 5.0 | 0.00 | 0.14 | 0.04 | 91 | 1013.4 |
| 20260510165016 | 52 | 248 | 2.0 | 4.0 | 0.00 | 0.14 | 0.04 | 91 | 1013.4 |
| 20260510164516 | 52 | 225 | 2.0 | 8.0 | 0.01 | 0.14 | 0.04 | 91 | 1013.4 |
| 20260510164016 | 52 | 248 | 1.0 | 5.0 | 0.01 | 0.15 | 0.04 | 93 | 1013.4 |
| 20260510163536 | 51 | 0 | 1.0 | 5.0 | 0.01 | 0.15 | 0.04 | 93 | 1013.4 |
| 20260510163015 | 51 | 0 | 1.0 | 5.0 | 0.01 | 0.16 | 0.04 | 93 | 1013.5 |
| 20260510162556 | 51 | 270 | 1.0 | 4.0 | 0.01 | 0.16 | 0.04 | 93 | 1013.5 |
| 20260510162016 | 50 | 0.0 | 3.0 | 0.01 | 0.17 | 0.04 | 94 | 1013.4 | |
| 20260510161516 | 50 | 293 | 1.0 | 3.0 | 0.01 | 0.17 | 0.04 | 94 | 1013.4 |
| 20260510161036 | 50 | 0.0 | 2.0 | 0.01 | 0.18 | 0.04 | 94 | 1013.3 | |
| 20260510160515 | 50 | 225 | 1.0 | 4.0 | 0.01 | 0.18 | 0.04 | 94 | 1013.3 |
| 20260510160015 | 50 | 293 | 2.0 | 8.0 | 0.02 | 0.19 | 0.04 | 94 | 1013.3 |
| 20260510155515 | 50 | 180 | 1.0 | 4.0 | 0.02 | 0.20 | 0.04 | 94 | 1013.3 |
| 20260510155016 | 50 | 0.0 | 2.0 | 0.03 | 0.20 | 0.04 | 94 | 1013.2 | |
| 20260510154515 | 50 | 248 | 1.0 | 2.0 | 0.03 | 0.20 | 0.03 | 94 | 1013.2 |
| 20260510154015 | 50 | 0.0 | 3.0 | 0.03 | 0.20 | 0.03 | 95 | 1013.1 | |
| 20260510153516 | 50 | 0.0 | 1.0 | 0.03 | 0.21 | 0.03 | 95 | 1013.0 | |
| 20260510153056 | 50 | 270 | 1.0 | 4.0 | 0.03 | 0.21 | 0.03 | 95 | 1013.1 |
| 20260510152516 | 50 | 315 | 1.0 | 3.0 | 0.03 | 0.21 | 0.03 | 95 | 1013.0 |
| 20260510152015 | 50 | 293 | 1.0 | 3.0 | 0.03 | 0.21 | 0.03 | 94 | 1013.0 |
| 20260510151515 | 50 | 0.0 | 4.0 | 0.03 | 0.21 | 0.03 | 94 | 1012.8 | |
| 20260510151016 | 50 | 293 | 1.0 | 3.0 | 0.03 | 0.21 | 0.03 | 94 | 1012.7 |
| 20260510150516 | 51 | 270 | 1.0 | 2.0 | 0.03 | 0.22 | 0.03 | 93 | 1012.7 |
| 20260510150015 | 51 | 270 | 1.0 | 4.0 | 0.02 | 0.22 | 0.02 | 92 | 1012.7 |
| 20260510145515 | 51 | 315 | 1.0 | 6.0 | 0.02 | 0.22 | 0.02 | 91 | 1012.8 |
| 20260510145015 | 52 | 315 | 2.0 | 9.0 | 0.01 | 0.21 | 0.01 | 90 | 1013.0 |
| 20260510144536 | 52 | 315 | 4.0 | 11.0 | 0.00 | 0.20 | 0.00 | 88 | 1012.8 |
| 20260510144056 | 53 | 315 | 3.0 | 9.0 | 0.00 | 0.20 | 0.00 | 88 | 1012.8 |
| 20260510143536 | 53 | 293 | 2.0 | 8.0 | 0.00 | 0.21 | 0.00 | 88 | 1012.5 |
| 20260510143016 | 53 | 180 | 1.0 | 2.0 | 0.00 | 0.21 | 0.00 | 89 | 1012.1 |
| 20260510142516 | 53 | 0.0 | 0.0 | 0.00 | 0.21 | 0.00 | 89 | 1012.1 | |
| 20260510142036 | 53 | 180 | 1.0 | 4.0 | 0.00 | 0.21 | 0.00 | 89 | 1011.9 |
| 20260510141515 | 53 | 0.0 | 1.0 | 0.00 | 0.21 | 0.00 | 91 | 1012.0 | |
| 20260510141015 | 54 | 0.0 | 1.0 | 0.00 | 0.21 | 0.00 | 90 | 1012.0 | |
| 20260510140515 | 54 | 0.0 | 1.0 | 0.00 | 0.21 | 0.00 | 88 | 1012.0 | |
| 20260510140015 | 54 | 0.0 | 1.0 | 0.00 | 0.21 | 0.00 | 86 | 1012.1 | |
| 20260510135516 | 53 | 135 | 1.0 | 3.0 | 0.00 | 0.21 | 0.00 | 85 | 1012.0 |
| 20260510135015 | 53 | 135 | 1.0 | 2.0 | 0.00 | 0.21 | 0.00 | 87 | 1011.9 |
| 20260510134516 | 53 | 0.0 | 2.0 | 0.00 | 0.21 | 0.00 | 86 | 1011.8 | |
| 20260510134016 | 53 | 113 | 1.0 | 2.0 | 0.00 | 0.21 | 0.00 | 87 | 1011.9 |
| 20260510133536 | 52 | 135 | 1.0 | 3.0 | 0.00 | 0.21 | 0.00 | 88 | 1011.9 |
| 20260510133016 | 52 | 158 | 2.0 | 4.0 | 0.00 | 0.21 | 0.00 | 89 | 1012.1 |
| 20260510132515 | 52 | 135 | 3.0 | 7.0 | 0.00 | 0.21 | 0.00 | 89 | 1012.1 |
| 20260510132016 | 52 | 135 | 2.0 | 6.0 | 0.00 | 0.21 | 0.00 | 88 | 1012.2 |
| 20260510131515 | 52 | 135 | 1.0 | 6.0 | 0.00 | 0.21 | 0.00 | 89 | 1012.2 |
| 20260510131016 | 52 | 225 | 2.0 | 6.0 | 0.00 | 0.21 | 0.00 | 88 | 1012.2 |
| 20260510130516 | 52 | 135 | 2.0 | 4.0 | 0.00 | 0.21 | 0.00 | 89 | 1012.2 |
| 20260510130016 | 52 | 158 | 2.0 | 7.0 | 0.00 | 0.21 | 0.00 | 88 | 1012.2 |
| 20260510125516 | 52 | 158 | 3.0 | 6.0 | 0.00 | 0.21 | 0.00 | 88 | 1012.2 |
| 20260510125015 | 52 | 90 | 3.0 | 6.0 | 0.00 | 0.21 | 0.00 | 89 | 1011.9 |
| 20260510124515 | 52 | 158 | 3.0 | 8.0 | 0.00 | 0.21 | 0.00 | 89 | 1011.6 |
| 20260510124016 | 52 | 90 | 2.0 | 6.0 | 0.00 | 0.21 | 0.00 | 89 | 1011.6 |
| 20260510123516 | 53 | 135 | 3.0 | 7.0 | 0.00 | 0.21 | 0.00 | 87 | 1011.7 |
| 20260510123016 | 53 | 135 | 3.0 | 6.0 | 0.00 | 0.21 | 0.00 | 88 | 1011.7 |
| 20260510122516 | 53 | 90 | 4.0 | 7.0 | 0.00 | 0.21 | 0.00 | 89 | 1011.7 |
| 20260510122016 | 53 | 203 | 2.0 | 5.0 | 0.00 | 0.21 | 0.00 | 89 | 1012.0 |
| 20260510121536 | 52 | 158 | 2.0 | 5.0 | 0.00 | 0.21 | 0.00 | 89 | 1012.0 |
| 20260510121016 | 52 | 68 | 2.0 | 6.0 | 0.00 | 0.21 | 0.00 | 90 | 1012.0 |
| 20260510120536 | 51 | 135 | 2.0 | 4.0 | 0.00 | 0.21 | 0.00 | 91 | 1012.1 |
| 20260510120016 | 51 | 135 | 2.0 | 6.0 | 0.00 | 0.21 | 0.00 | 92 | 1011.9 |
| 20260510115536 | 51 | 135 | 3.0 | 7.0 | 0.00 | 0.21 | 0.00 | 92 | 1011.9 |
| 20260510115036 | 51 | 135 | 3.0 | 7.0 | 0.00 | 0.21 | 0.00 | 91 | 1011.9 |
| 20260510114516 | 51 | 113 | 3.0 | 7.0 | 0.00 | 0.21 | 0.00 | 91 | 1011.9 |
| 20260510114015 | 51 | 135 | 2.0 | 4.0 | 0.00 | 0.21 | 0.00 | 93 | 1012.0 |
| 20260510113515 | 51 | 135 | 1.0 | 4.0 | 0.00 | 0.21 | 0.00 | 93 | 1011.9 |
| 20260510113016 | 50 | 0.0 | 2.0 | 0.00 | 0.21 | 0.00 | 95 | 1011.8 | |
| 20260510112536 | 49 | 0.0 | 2.0 | 0.00 | 0.21 | 0.00 | 96 | 1011.7 | |
| 20260510112016 | 48 | 90 | 1.0 | 3.0 | 0.00 | 0.21 | 0.00 | 97 | 1011.6 |
| 20260510111516 | 48 | 135 | 1.0 | 2.0 | 0.00 | 0.21 | 0.00 | 98 | 1011.5 |
| 20260510111015 | 48 | 135 | 1.0 | 3.0 | 0.00 | 0.21 | 0.00 | 98 | 1011.5 |
| 20260510110516 | 47 | 90 | 1.0 | 3.0 | 0.00 | 0.21 | 0.00 | 99 | 1011.4 |
| 20260510110016 | 46 | 113 | 1.0 | 2.0 | 0.00 | 0.21 | 0.00 | 99 | 1011.4 |
| 20260510105536 | 46 | 90 | 1.0 | 3.0 | 0.00 | 0.21 | 0.00 | 99 | 1011.3 |
| 20260510105016 | 45 | 90 | 1.0 | 3.0 | 0.00 | 0.21 | 0.00 | 99 | 1011.3 |
| 20260510104515 | 43 | 68 | 1.0 | 3.0 | 0.00 | 0.21 | 0.00 | 99 | 1011.3 |
| 20260510104016 | 43 | 0.0 | 1.0 | 0.00 | 0.21 | 0.00 | 99 | 1011.4 | |
| 20260510103516 | 43 | 0.0 | 0.0 | 0.00 | 0.21 | 0.00 | 99 | 1011.3 | |
| 20260510103016 | 43 | 0.0 | 0.0 | 0.00 | 0.21 | 0.00 | 99 | 1011.4 | |
| 20260510102516 | 43 | 0.0 | 0.0 | 0.00 | 0.21 | 0.00 | 99 | 1011.4 | |
| 20260510102056 | 43 | 0.0 | 1.0 | 0.00 | 0.21 | 0.00 | 99 | 1011.3 | |
| 20260510101516 | 43 | 0.0 | 0.0 | 0.00 | 0.21 | 0.00 | 98 | 1011.1 | |
| 20260510101036 | 43 | 0.0 | 0.0 | 0.00 | 0.21 | 0.00 | 98 | 1010.9 | |
| 20260510100516 | 43 | 0.0 | 0.0 | 0.00 | 0.21 | 0.00 | 98 | 1010.8 | |
| 20260510100015 | 43 | 0.0 | 0.0 | 0.00 | 0.21 | 0.00 | 98 | 1010.7 | |
| 20260510095516 | 43 | 0.0 | 0.0 | 0.00 | 0.21 | 0.00 | 98 | 1010.6 | |
| 20260510095015 | 43 | 0.0 | 0.0 | 0.00 | 0.21 | 0.00 | 98 | 1010.5 | |
| 20260510094516 | 43 | 0.0 | 1.0 | 0.00 | 0.21 | 0.00 | 98 | 1010.6 | |
| 20260510094016 | 44 | 0.0 | 1.0 | 0.00 | 0.21 | 0.00 | 97 | 1010.4 | |
| 20260510093535 | 44 | 0.0 | 0.0 | 0.00 | 0.21 | 0.00 | 97 | 1010.4 | |
| 20260510093016 | 45 | 0.0 | 1.0 | 0.00 | 0.21 | 0.00 | 97 | 1010.4 | |
| 20260510092536 | 45 | 68 | 1.0 | 3.0 | 0.00 | 0.21 | 0.00 | 98 | 1010.2 |
| 20260510092016 | 45 | 113 | 2.0 | 3.0 | 0.00 | 0.21 | 0.00 | 98 | 1010.1 |
| 20260510091516 | 45 | 0.0 | 2.0 | 0.00 | 0.21 | 0.00 | 97 | 1010.1 | |
| 20260510091015 | 46 | 0.0 | 0.0 | 0.00 | 0.21 | 0.00 | 97 | 1010.2 | |
| 20260510090516 | 46 | 0.0 | 0.0 | 0.00 | 0.21 | 0.00 | 97 | 1010.2 | |
| 20260510090016 | 46 | 0.0 | 1.0 | 0.00 | 0.21 | 0.00 | 98 | 1010.2 | |
| 20260510085516 | 46 | 0.0 | 2.0 | 0.00 | 0.21 | 0.00 | 97 | 1010.0 | |
| 20260510085016 | 47 | 0.0 | 2.0 | 0.00 | 0.21 | 0.00 | 97 | 1009.9 | |
| 20260510084516 | 47 | 90 | 2.0 | 3.0 | 0.00 | 0.21 | 0.00 | 98 | 1009.7 |
| 20260510084016 | 47 | 113 | 1.0 | 3.0 | 0.00 | 0.21 | 0.00 | 97 | 1009.8 |
| 20260510083516 | 47 | 113 | 2.0 | 4.0 | 0.00 | 0.21 | 0.00 | 98 | 1010.0 |
| 20260510083016 | 47 | 90 | 2.0 | 4.0 | 0.00 | 0.21 | 0.00 | 98 | 1010.2 |
| 20260510082536 | 47 | 90 | 1.0 | 2.0 | 0.00 | 0.21 | 0.00 | 97 | 1010.5 |
| 20260510082035 | 47 | 90 | 1.0 | 2.0 | 0.00 | 0.21 | 0.00 | 97 | 1010.6 |
| 20260510081515 | 47 | 90 | 1.0 | 3.0 | 0.00 | 0.21 | 0.00 | 97 | 1010.5 |
| 20260510081016 | 47 | 90 | 1.0 | 3.0 | 0.00 | 0.21 | 0.00 | 97 | 1010.7 |
| 20260510080516 | 47 | 90 | 2.0 | 3.0 | 0.00 | 0.21 | 0.00 | 97 | 1010.7 |
| 20260510080016 | 47 | 113 | 3.0 | 4.0 | 0.00 | 0.21 | 0.00 | 97 | 1010.9 |
| 20260510075516 | 47 | 90 | 2.0 | 4.0 | 0.00 | 0.21 | 0.00 | 97 | 1011.0 |
| 20260510075016 | 47 | 0.0 | 2.0 | 0.00 | 0.21 | 0.00 | 96 | 1011.1 | |
| 20260510074516 | 47 | 0.0 | 1.0 | 0.00 | 0.21 | 0.00 | 96 | 1011.0 | |
| 20260510074015 | 47 | 90 | 1.0 | 3.0 | 0.00 | 0.21 | 0.00 | 96 | 1010.8 |
| 20260510073516 | 47 | 135 | 1.0 | 3.0 | 0.00 | 0.21 | 0.00 | 96 | 1010.8 |
| 20260510073038 | 47 | 90 | 1.0 | 4.0 | 0.00 | 0.21 | 0.00 | 96 | 1010.7 |
| 20260510072536 | 47 | 90 | 2.0 | 4.0 | 0.00 | 0.21 | 0.00 | 96 | 1010.7 |
| 20260510072015 | 47 | 113 | 2.0 | 4.0 | 0.00 | 0.21 | 0.00 | 96 | 1010.8 |
| 20260510071516 | 47 | 113 | 2.0 | 5.0 | 0.00 | 0.21 | 0.00 | 96 | 1010.7 |
| 20260510071015 | 47 | 90 | 1.0 | 4.0 | 0.00 | 0.21 | 0.00 | 96 | 1010.6 |
| 20260510070516 | 47 | 0.0 | 3.0 | 0.00 | 0.21 | 0.00 | 96 | 1010.7 | |
| 20260510070016 | 47 | 90 | 2.0 | 3.0 | 0.00 | 0.21 | 0.00 | 96 | 1010.6 |
| 20260510065515 | 47 | 135 | 2.0 | 3.0 | 0.00 | 0.21 | 0.00 | 96 | 1010.6 |
| 20260510065016 | 47 | 113 | 2.0 | 4.0 | 0.00 | 0.21 | 0.00 | 96 | 1010.6 |
| 20260510064516 | 47 | 90 | 3.0 | 7.0 | 0.00 | 0.21 | 0.00 | 96 | 1010.5 |
| 20260510064016 | 47 | 113 | 1.0 | 3.0 | 0.00 | 0.21 | 0.00 | 96 | 1010.7 |
| 20260510063516 | 47 | 113 | 2.0 | 3.0 | 0.00 | 0.21 | 0.00 | 95 | 1010.8 |
| 20260510063016 | 47 | 90 | 2.0 | 5.0 | 0.00 | 0.21 | 0.00 | 95 | 1010.9 |
| 20260510062516 | 47 | 135 | 3.0 | 6.0 | 0.00 | 0.21 | 0.00 | 96 | 1010.8 |
| 20260510062036 | 47 | 113 | 2.0 | 6.0 | 0.00 | 0.21 | 0.00 | 96 | 1010.6 |
| 20260510061536 | 47 | 135 | 4.0 | 8.0 | 0.00 | 0.21 | 0.00 | 96 | 1010.4 |
| 20260510061036 | 47 | 113 | 3.0 | 7.0 | 0.00 | 0.21 | 0.00 | 96 | 1010.3 |
| 20260510060515 | 47 | 113 | 3.0 | 6.0 | 0.00 | 0.21 | 0.00 | 96 | 1010.4 |
| 20260510060019 | 47 | 113 | 3.0 | 5.0 | 0.00 | 0.21 | 0.00 | 96 | 1010.6 |
| 20260510055516 | 47 | 113 | 2.0 | 4.0 | 0.00 | 0.21 | 0.00 | 96 | 1010.7 |
| 20260510055056 | 47 | 135 | 2.0 | 5.0 | 0.00 | 0.21 | 0.00 | 96 | 1010.7 |
| 20260510054515 | 47 | 135 | 2.0 | 4.0 | 0.00 | 0.21 | 0.00 | 97 | 1010.7 |
| 20260510054016 | 46 | 135 | 2.0 | 3.0 | 0.00 | 0.21 | 0.00 | 97 | 1010.7 |
| 20260510053515 | 47 | 0.0 | 2.0 | 0.00 | 0.21 | 0.00 | 96 | 1010.8 | |
| 20260510053035 | 47 | 0.0 | 1.0 | 0.00 | 0.21 | 0.00 | 96 | 1010.9 | |
| 20260510052516 | 47 | 0.0 | 1.0 | 0.00 | 0.21 | 0.00 | 96 | 1010.8 | |
| 20260510052036 | 47 | 0.0 | 2.0 | 0.00 | 0.21 | 0.00 | 96 | 1010.8 | |
| 20260510051516 | 47 | 90 | 1.0 | 4.0 | 0.00 | 0.21 | 0.00 | 96 | 1010.8 |
| 20260510051016 | 47 | 68 | 1.0 | 5.0 | 0.00 | 0.21 | 0.00 | 96 | 1010.7 |
| 20260510050516 | 47 | 68 | 3.0 | 6.0 | 0.00 | 0.21 | 0.00 | 96 | 1010.7 |
| 20260510050016 | 47 | 113 | 2.0 | 5.0 | 0.00 | 0.21 | 0.00 | 97 | 1010.6 |
| 20260510045516 | 47 | 90 | 3.0 | 5.0 | 0.00 | 0.21 | 0.00 | 97 | 1010.7 |
| 20260510045015 | 47 | 90 | 2.0 | 6.0 | 0.00 | 0.21 | 0.00 | 96 | 1010.8 |
| 20260510044516 | 47 | 90 | 2.0 | 5.0 | 0.00 | 0.21 | 0.00 | 97 | 1010.9 |
| 20260510044016 | 46 | 90 | 2.0 | 4.0 | 0.00 | 0.21 | 0.00 | 97 | 1010.9 |
| 20260510043516 | 46 | 90 | 2.0 | 5.0 | 0.00 | 0.21 | 0.00 | 97 | 1011.0 |
| 20260510043016 | 46 | 113 | 2.0 | 5.0 | 0.00 | 0.21 | 0.00 | 97 | 1011.1 |
| 20260510042536 | 46 | 0.0 | 2.0 | 0.00 | 0.21 | 0.00 | 97 | 1011.1 | |
| 20260510042015 | 46 | 0.0 | 0.0 | 0.00 | 0.21 | 0.00 | 97 | 1011.0 | |
| 20260510041516 | 46 | 0.0 | 1.0 | 0.00 | 0.21 | 0.00 | 97 | 1010.9 | |
| 20260510041016 | 46 | 135 | 1.0 | 2.0 | 0.00 | 0.21 | 0.00 | 97 | 1010.8 |
| 20260510040515 | 46 | 0.0 | 2.0 | 0.00 | 0.21 | 0.00 | 97 | 1010.6 | |
| 20260510040016 | 46 | 68 | 1.0 | 3.0 | 0.00 | 0.21 | 0.21 | 97 | 1010.7 |
| 20260510035516 | 46 | 90 | 3.0 | 6.0 | 0.00 | 0.21 | 0.21 | 97 | 1010.6 |
| 20260510035036 | 46 | 90 | 2.0 | 7.0 | 0.00 | 0.21 | 0.21 | 97 | 1010.8 |
| 20260510034516 | 46 | 113 | 1.0 | 3.0 | 0.00 | 0.21 | 0.21 | 97 | 1010.8 |
| 20260510034016 | 46 | 68 | 1.0 | 4.0 | 0.00 | 0.21 | 0.21 | 97 | 1010.9 |
| 20260510033516 | 46 | 135 | 1.0 | 5.0 | 0.00 | 0.21 | 0.21 | 97 | 1010.9 |
| 20260510033016 | 46 | 68 | 1.0 | 4.0 | 0.00 | 0.21 | 0.21 | 97 | 1010.9 |
| 20260510032516 | 46 | 113 | 2.0 | 4.0 | 0.00 | 0.21 | 0.21 | 97 | 1011.0 |
| 20260510032016 | 46 | 68 | 2.0 | 7.0 | 0.00 | 0.21 | 0.21 | 97 | 1010.8 |
| 20260510031516 | 46 | 68 | 3.0 | 7.0 | 0.00 | 0.21 | 0.21 | 97 | 1010.8 |
| 20260510031016 | 46 | 113 | 5.0 | 9.0 | 0.00 | 0.21 | 0.21 | 97 | 1010.9 |
| 20260510030516 | 46 | 90 | 3.0 | 8.0 | 0.00 | 0.21 | 0.21 | 97 | 1010.9 |
| 20260510030016 | 46 | 68 | 4.0 | 8.0 | 0.00 | 0.21 | 0.21 | 97 | 1011.0 |
| 20260510025516 | 46 | 113 | 4.0 | 8.0 | 0.00 | 0.21 | 0.21 | 98 | 1011.0 |
| 20260510025036 | 46 | 113 | 4.0 | 10.0 | 0.00 | 0.21 | 0.21 | 98 | 1011.0 |
| 20260510024516 | 46 | 68 | 1.0 | 5.0 | 0.00 | 0.21 | 0.21 | 98 | 1010.9 |
| 20260510024015 | 46 | 90 | 3.0 | 8.0 | 0.00 | 0.21 | 0.21 | 98 | 1011.0 |
| 20260510023516 | 46 | 90 | 2.0 | 4.0 | 0.00 | 0.21 | 0.21 | 98 | 1011.0 |
| 20260510023016 | 45 | 135 | 2.0 | 5.0 | 0.00 | 0.21 | 0.21 | 98 | 1011.0 |
| 20260510022516 | 45 | 113 | 3.0 | 7.0 | 0.00 | 0.21 | 0.21 | 98 | 1011.0 |
| 20260510022016 | 45 | 90 | 4.0 | 13.0 | 0.00 | 0.21 | 0.21 | 98 | 1010.8 |
| 20260510021516 | 45 | 113 | 5.0 | 10.0 | 0.00 | 0.21 | 0.21 | 98 | 1011.0 |
| 20260510021016 | 45 | 135 | 2.0 | 9.0 | 0.00 | 0.21 | 0.21 | 98 | 1010.9 |
| 20260510020536 | 45 | 113 | 3.0 | 7.0 | 0.00 | 0.21 | 0.21 | 98 | 1011.1 |
| 20260510020016 | 45 | 90 | 3.0 | 7.0 | 0.00 | 0.21 | 0.21 | 98 | 1011.0 |
| 20260510015536 | 45 | 90 | 4.0 | 7.0 | 0.00 | 0.21 | 0.21 | 97 | 1010.9 |
| 20260510015016 | 45 | 135 | 2.0 | 4.0 | 0.00 | 0.21 | 0.21 | 97 | 1011.1 |
| 20260510014516 | 45 | 135 | 2.0 | 5.0 | 0.00 | 0.21 | 0.21 | 97 | 1011.3 |
| 20260510014016 | 45 | 113 | 2.0 | 7.0 | 0.00 | 0.21 | 0.21 | 97 | 1011.2 |
| 20260510013516 | 45 | 113 | 2.0 | 6.0 | 0.00 | 0.21 | 0.21 | 97 | 1011.2 |
| 20260510013016 | 45 | 113 | 2.0 | 5.0 | 0.00 | 0.21 | 0.21 | 97 | 1011.1 |
| 20260510012516 | 45 | 90 | 3.0 | 6.0 | 0.00 | 0.21 | 0.21 | 97 | 1011.2 |
| 20260510012036 | 45 | 113 | 3.0 | 6.0 | 0.00 | 0.21 | 0.21 | 97 | 1011.3 |
| 20260510011515 | 45 | 113 | 3.0 | 5.0 | 0.00 | 0.21 | 0.21 | 97 | 1011.3 |
| 20260510011015 | 45 | 113 | 3.0 | 8.0 | 0.00 | 0.21 | 0.21 | 97 | 1011.3 |
| 20260510010516 | 45 | 135 | 2.0 | 7.0 | 0.00 | 0.21 | 0.21 | 97 | 1011.2 |
| 20260510010016 | 45 | 113 | 2.0 | 5.0 | 0.00 | 0.21 | 0.21 | 97 | 1011.2 |
| 20260510005516 | 45 | 158 | 1.0 | 3.0 | 0.00 | 0.21 | 0.21 | 97 | 1011.2 |
| 20260510005016 | 45 | 90 | 3.0 | 6.0 | 0.00 | 0.21 | 0.21 | 97 | 1011.1 |
| 20260510004516 | 45 | 135 | 2.0 | 5.0 | 0.00 | 0.21 | 0.21 | 97 | 1011.0 |
| 20260510004016 | 45 | 113 | 4.0 | 7.0 | 0.00 | 0.21 | 0.21 | 97 | 1010.9 |
| 20260510003515 | 45 | 90 | 3.0 | 6.0 | 0.00 | 0.21 | 0.21 | 97 | 1010.9 |
| 20260510003016 | 45 | 90 | 3.0 | 6.0 | 0.00 | 0.21 | 0.21 | 97 | 1011.0 |
| 20260510002516 | 45 | 90 | 2.0 | 5.0 | 0.00 | 0.21 | 0.21 | 97 | 1011.0 |
| 20260510002016 | 45 | 68 | 3.0 | 7.0 | 0.00 | 0.21 | 0.21 | 97 | 1010.9 |
| 20260510001516 | 45 | 113 | 4.0 | 6.0 | 0.00 | 0.21 | 0.21 | 97 | 1010.9 |
| 20260510001016 | 45 | 113 | 3.0 | 6.0 | 0.00 | 0.21 | 0.21 | 97 | 1010.8 |
| 20260510000516 | 45 | 113 | 2.0 | 4.0 | 0.00 | 0.21 | 0.21 | 97 | 1010.8 |
| 20260510000016 | 45 | 113 | 3.0 | 6.0 | 0.00 | 0.21 | 0.21 | 97 | 1010.7 |
| 20260509235536 | 45 | 135 | 4.0 | 9.0 | 0.00 | 0.21 | 0.21 | 96 | 1010.6 |
| 20260509235036 | 45 | 135 | 4.0 | 7.0 | 0.00 | 0.21 | 0.21 | 96 | 1010.6 |
| 20260509234515 | 45 | 90 | 4.0 | 9.0 | 0.00 | 0.21 | 0.21 | 96 | 1010.5 |
| 20260509234036 | 45 | 113 | 3.0 | 8.0 | 0.00 | 0.21 | 0.21 | 96 | 1010.4 |
| 20260509233515 | 45 | 113 | 4.0 | 7.0 | 0.00 | 0.21 | 0.21 | 96 | 1010.4 |
| 20260509233016 | 45 | 135 | 3.0 | 7.0 | 0.00 | 0.21 | 0.21 | 96 | 1010.3 |
| 20260509232516 | 45 | 90 | 5.0 | 9.0 | 0.00 | 0.21 | 0.21 | 96 | 1010.4 |
| 20260509232016 | 45 | 135 | 3.0 | 5.0 | 0.00 | 0.21 | 0.21 | 97 | 1010.4 |
| 20260509231516 | 45 | 135 | 3.0 | 7.0 | 0.00 | 0.21 | 0.21 | 97 | 1010.4 |
| 20260509231036 | 45 | 135 | 3.0 | 8.0 | 0.00 | 0.21 | 0.21 | 97 | 1010.4 |
| 20260509230516 | 45 | 113 | 4.0 | 8.0 | 0.00 | 0.21 | 0.21 | 97 | 1010.3 |
| 20260509230016 | 45 | 158 | 2.0 | 5.0 | 0.00 | 0.21 | 0.21 | 97 | 1010.3 |
| 20260509225536 | 45 | 90 | 4.0 | 7.0 | 0.00 | 0.21 | 0.21 | 97 | 1010.3 |
| 20260509225016 | 45 | 113 | 4.0 | 7.0 | 0.00 | 0.21 | 0.21 | 97 | 1010.4 |
| 20260509224516 | 44 | 113 | 3.0 | 7.0 | 0.00 | 0.21 | 0.21 | 97 | 1010.5 |
| 20260509224016 | 44 | 135 | 4.0 | 7.0 | 0.00 | 0.21 | 0.21 | 97 | 1010.5 |
| 20260509223516 | 44 | 113 | 3.0 | 5.0 | 0.00 | 0.21 | 0.21 | 97 | 1010.5 |
| 20260509223016 | 44 | 135 | 2.0 | 5.0 | 0.00 | 0.21 | 0.21 | 97 | 1010.5 |
| 20260509222516 | 44 | 113 | 3.0 | 6.0 | 0.00 | 0.21 | 0.21 | 97 | 1010.6 |
| 20260509222016 | 44 | 135 | 3.0 | 6.0 | 0.00 | 0.21 | 0.21 | 97 | 1010.6 |
| 20260509221536 | 44 | 113 | 3.0 | 7.0 | 0.00 | 0.21 | 0.21 | 97 | 1010.7 |